BEIDOU 9 (C09)

Last updated on Mon Feb 13 2023 00:03:21 GMT+0000 (Coordinated Universal Time)

1 37763U 11038A 23043.33631098 -.00000020 00000+0 00000+0 0 9995 2 37763 54.4884 176.5472 0103974 227.5486 314.6254 1.00273634 42402

Satellite not in orbit

BEIDOU 9 (C09)